EHI
4 8 15 22 22 13 3 0 0 0 0 0 0 0 1 1 1 3 15 36 42 27 13 9 8 5 1 0 0 0 0 0 0 0 0 0 0 0 0 0 0 0 0 0 0 0 0 0 0
4 9 16 20 17 7 1 0 0 0 0 0 0 1 1 1 2 6 21 36 33 20 11 10 10 6 1 0 0 0 0 0 0 0 0 0 0 0 0 0 0 0 0 0 0 0 0 0 0
5 8 13 14 9 2 0 0 0 0 0 0 0 1 1 2 6 13 27 33 25 15 13 14 14 9 3 0 0 0 0 0 0 0 0 0 0 0 0 0 0 0 0 0 0 0 0 0 0
5 6 7 6 3 0 0 0 0 0 0 1 1 2 3 6 13 19 24 26 22 18 17 16 16 13 5 1 0 0 0 0 0 0 0 0 0 0 0 0 0 0 0 0 0 0 0 0 0
3 3 2 1 0 0 0 0 0 0 1 2 5 7 7 11 17 18 17 20 23 23 19 16 17 13 6 2 0 0 0 0 0 0 1 1 1 0 0 0 0 0 0 0 0 0 0 0 0
1 1 1 0 0 0 0 0 0 0 1 3 9 13 12 13 17 15 14 19 28 30 23 17 14 10 6 2 1 0 0 0 0 1 1 2 1 1 1 0 0 0 0 0 0 0 0 0 0
0 0 0 0 0 0 0 0 0 0 1 2 9 16 17 17 17 15 15 24 37 38 25 14 8 6 4 2 1 0 0 0 0 1 2 2 2 2 2 1 1 0 0 0 0 0 0 0 0
0 0 0 0 0 0 0 0 0 0 0 1 6 17 25 26 21 16 17 29 45 43 25 11 5 3 2 1 0 0 0 0 0 1 2 2 2 3 3 2 1 0 0 0 0 0 0 0 0
0 0 0 0 0 0 0 1 0 0 1 3 12 27 40 40 32 25 26 39 53 50 30 15 8 3 1 0 0 0 0 0 0 1 2 2 1 3 3 3 2 0 0 0 0 0 0 0 0
0 0 0 0 0 0 0 0 0 0 2 11 28 47 54 53 48 41 40 52 62 57 40 26 16 6 2 2 2 1 0 0 0 1 3 2 1 3 4 3 1 0 0 0 0 1 1 1 0
0 0 0 0 0 0 0 0 0 0 3 17 43 61 62 61 60 56 55 64 71 62 48 39 27 14 10 9 4 1 1 1 1 2 2 2 2 4 5 3 1 1 0 0 0 1 2 2 1
0 0 0 0 0 0 0 0 0 0 3 19 44 62 65 66 67 64 65 72 76 66 56 51 42 29 25 19 8 3 5 5 4 4 3 2 2 4 5 4 3 2 1 1 1 1 2 3 3
0 0 0 0 0 0 0 0 1 2 7 20 43 60 66 69 71 69 71 78 78 70 64 63 57 49 44 33 18 11 13 13 12 8 4 3 4 8 8 6 4 2 2 2 1 1 2 3 3
0 0 0 0 0 0 0 0 2 6 13 25 44 60 67 71 75 77 80 84 81 73 72 74 72 67 59 43 27 20 20 21 21 16 11 8 10 15 15 10 5 3 3 3 2 1 2 2 2
0 0 0 0 0 0 0 0 3 8 16 27 44 60 68 75 82 86 90 91 83 79 83 83 80 75 64 47 32 24 24 25 28 29 25 16 16 22 20 11 7 6 6 5 3 1 1 1 1
0 0 0 0 0 0 0 0 3 8 13 25 43 60 71 79 86 91 95 93 87 87 92 89 81 77 67 50 37 29 30 34 38 40 36 25 22 24 21 12 9 9 8 7 4 2 1 0 0
0 0 0 0 0 0 0 1 4 6 9 20 40 60 75 84 90 94 96 94 93 95 97 91 86 83 73 57 45 39 40 44 46 46 42 34 28 26 22 17 17 15 11 9 7 7 5 2 1
0 0 0 0 0 0 0 1 3 4 6 16 35 58 77 88 93 95 96 96 97 99 98 94 91 90 82 65 53 49 46 44 43 45 46 41 34 28 23 22 26 22 15 13 13 14 11 6 3
0 0 0 0 0 0 0 0 1 3 5 13 32 55 75 88 94 97 97 97 98 99 98 95 92 94 89 75 64 57 50 42 38 41 49 49 40 31 23 24 30 27 22 21 20 19 15 9 6
0 0 0 0 0 0 0 0 1 2 5 13 28 48 66 83 94 97 98 97 97 97 97 95 94 94 92 83 73 65 57 48 41 44 53 54 46 35 27 28 32 30 29 29 26 22 16 10 7
0 0 0 0 0 0 0 0 2 4 6 12 23 38 55 75 90 96 96 95 95 96 97 95 93 93 92 87 79 71 67 60 52 53 57 55 48 40 33 31 34 33 32 32 28 23 16 8 6
0 0 0 0 0 0 0 1 4 7 6 9 18 31 46 65 83 92 93 93 94 94 94 92 92 91 90 87 82 79 75 69 61 59 58 54 48 43 37 34 35 35 32 31 29 25 19 11 7
0 0 0 0 0 0 0 1 5 8 6 7 15 26 39 56 74 87 91 92 92 89 87 87 87 86 85 83 82 82 78 71 65 62 59 52 48 44 39 36 38 38 35 32 33 33 26 18 13
0 0 0 0 0 0 0 1 4 7 7 8 14 22 32 46 64 81 88 88 86 81 81 82 80 78 79 78 79 80 77 71 67 65 58 49 46 44 38 36 40 41 40 38 39 38 30 23 21
0 0 0 0 0 0 0 1 5 7 8 9 13 20 26 37 54 73 80 79 77 76 78 78 75 74 73 74 77 76 72 68 65 60 52 45 41 39 38 38 40 42 42 41 41 37 30 26 27
0 0 0 0 0 0 1 3 6 9 11 11 14 20 25 33 47 62 71 73 73 74 75 75 73 72 70 71 73 70 65 61 57 50 43 39 36 35 37 40 39 40 40 39 39 36 30 28 30
0 0 0 0 0 0 1 4 7 9 12 12 14 19 25 32 41 52 64 71 73 74 73 71 71 70 68 67 64 61 57 56 53 47 39 36 35 34 36 37 34 34 37 38 38 35 30 29 29
0 0 0 0 0 0 1 3 7 10 11 10 13 18 25 29 34 44 57 67 70 69 68 67 65 64 62 58 54 50 49 52 53 47 40 38 37 36 35 33 30 30 35 37 36 32 27 24 23
0 0 0 0 0 0 1 3 7 11 10 9 15 23 28 28 32 40 51 59 60 59 60 61 59 56 53 50 47 44 45 47 48 44 40 38 38 37 35 31 26 26 29 30 29 25 21 17 16
0 0 0 0 0 0 1 3 6 9 9 10 19 28 31 31 35 42 49 53 54 53 54 55 55 52 49 47 46 45 43 44 44 40 37 35 34 35 33 27 22 20 21 23 21 17 15 13 12
Wind_Speed
9 12 10 7 4 2 5 10 13 13 14 13 12 14 17 14 11 12 14 21 22 20 17 16 15 15 15 15 15 15 14 14 14 14 14 14 14 14 14 15 14 15 15 15 15 15 15 15 14
10 13 8 4 3 2 6 10 13 12 11 11 13 16 18 17 16 16 17 21 22 20 17 16 17 16 16 15 15 15 14 14 14 14 14 14 14 14 14 14 14 14 14 15 15 14 14 14 13
13 16 7 5 4 3 6 9 11 11 10 11 15 16 14 13 15 16 18 22 20 19 17 17 17 16 16 15 15 14 14 14 14 13 13 14 14 13 14 14 14 14 14 14 14 14 13 13 11
9 8 6 6 2 4 8 9 9 10 10 10 13 13 14 12 15 18 20 21 20 20 18 17 17 17 16 15 15 14 14 13 13 13 13 13 13 13 14 14 14 14 14 14 14 13 13 11 9
9 6 7 7 2 5 8 8 8 8 10 13 16 16 14 14 19 20 19 20 20 20 18 17 17 17 16 15 15 14 13 13 13 13 13 13 13 13 13 13 13 13 14 13 13 13 12 10 8
7 7 7 6 2 5 7 7 7 8 9 13 16 17 12 15 17 17 18 17 20 20 18 16 17 17 16 15 14 14 13 13 13 13 13 13 13 13 13 13 13 13 13 12 12 12 11 9 6
9 10 11 7 2 5 7 6 6 6 8 10 14 15 11 15 15 15 15 17 19 20 18 15 15 14 15 15 14 13 13 13 13 13 13 13 13 13 13 12 13 13 12 12 12 12 11 8 5
9 10 13 9 3 5 7 6 5 6 7 9 12 12 13 16 16 16 14 16 18 18 17 16 15 13 12 12 13 14 14 13 13 13 13 13 13 13 13 12 12 12 11 11 11 11 10 7 4
11 9 10 8 1 5 7 5 6 8 7 6 9 15 20 21 20 17 14 15 15 16 15 15 15 13 13 13 13 13 13 12 12 11 13 12 9 10 9 12 12 11 11 10 10 10 9 7 4
8 9 12 6 4 3 4 5 4 6 9 9 13 18 22 21 20 17 16 16 15 15 15 14 14 13 13 11 10 8 9 9 7 7 8 6 5 6 10 12 12 11 10 9 9 9 8 6 4
11 13 13 8 3 3 1 3 4 4 7 8 13 20 22 21 19 17 15 15 14 13 13 13 12 10 11 9 9 6 5 6 6 8 7 5 5 6 8 6 7 6 8 6 7 7 5 4 2
14 14 12 10 5 3 5 3 2 3 8 11 15 19 21 21 19 17 15 15 14 13 13 13 12 8 7 9 7 6 6 6 5 6 7 5 3 4 5 4 5 5 4 4 4 3 3 3 3
14 14 13 10 8 6 7 6 3 3 9 14 18 19 20 20 18 16 16 15 15 12 12 12 10 8 6 5 5 7 6 7 7 6 4 5 4 4 4 3 4 4 4 4 2 2 2 2 2
12 13 13 11 11 9 9 9 7 6 10 15 18 19 19 19 19 17 16 15 15 14 13 12 11 9 7 5 2 3 5 5 7 6 6 5 4 4 4 3 2 2 3 3 3 3 2 1 2
14 14 14 13 13 12 10 11 10 8 10 14 17 17 19 18 18 18 16 15 16 14 12 11 11 10 8 7 5 4 4 6 5 5 6 5 4 5 4 4 3 2 3 4 2 3 2 3 3
13 14 15 16 16 13 12 11 7 8 10 12 14 15 16 16 17 17 16 14 14 13 12 11 12 11 9 6 5 3 3 5 4 5 5 5 4 6 4 4 4 3 3 3 3 2 2 2 1
15 16 17 15 14 12 13 10 6 7 9 11 12 14 16 16 16 16 17 15 14 12 12 11 10 12 10 8 5 4 2 3 4 5 5 6 5 5 4 3 3 4 3 3 4 3 2 2 2
14 16 16 14 12 13 13 10 7 9 12 12 12 13 15 16 15 16 16 15 13 13 12 12 10 11 10 7 5 3 3 3 3 4 5 7 5 6 4 3 4 4 3 2 2 3 2 1 2
18 15 13 9 7 9 11 10 8 9 9 10 11 13 14 14 16 15 16 16 14 13 13 12 11 11 9 8 8 6 6 5 4 5 7 8 7 7 4 3 4 3 3 4 4 3 3 2 2
19 17 15 8 7 8 9 10 10 9 10 9 11 12 14 16 16 16 15 15 15 13 13 13 12 12 11 7 6 5 6 5 5 4 6 8 7 7 7 4 4 4 2 3 3 3 2 2 2
17 16 15 11 7 8 9 12 12 11 10 10 10 11 13 16 17 18 17 16 15 15 15 13 13 11 11 9 6 5 4 4 5 5 6 7 7 7 6 7 5 5 4 4 4 4 4 2 2
14 15 14 12 10 8 11 11 10 10 10 10 11 11 13 13 16 17 17 16 15 14 14 12 12 12 11 10 9 10 8 8 7 6 6 7 7 7 7 7 6 5 4 5 6 6 4 3 2
14 13 12 11 10 11 12 12 8 10 11 10 10 11 12 12 15 17 17 15 14 14 13 12 11 11 11 10 10 9 9 7 6 6 7 8 7 7 7 7 6 5 4 5 5 5 5 3 3
13 12 10 10 10 13 15 14 8 7 9 10 10 10 10 11 12 15 15 14 13 13 12 12 12 11 11 11 11 10 10 8 7 7 7 7 6 7 8 8 7 6 5 5 5 5 6 4 4
15 11 8 10 11 13 15 13 5 5 7 8 9 10 11 11 12 13 14 14 13 13 12 11 12 11 11 12 11 11 10 9 8 8 7 8 7 7 8 9 7 7 6 6 6 5 5 5 4
16 16 12 10 10 10 12 9 5 8 9 8 7 8 9 10 11 13 13 13 12 13 12 11 11 11 11 11 11 10 10 8 7 8 7 7 6 7 8 8 8 7 7 8 6 6 6 5 5
18 17 18 13 12 8 6 4 6 9 10 11 11 9 9 9 9 10 11 11 11 11 11 11 10 10 10 10 9 9 9 9 8 7 7 6 5 6 8 8 8 8 8 7 6 5 6 5 6
17 17 12 13 10 10 7 9 9 13 11 11 10 10 9 9 9 9 9 9 8 8 8 8 9 9 9 9 9 9 9 8 7 7 7 6 6 6 7 8 8 8 7 7 7 6 6 6 6
18 18 15 10 10 10 5 3 3 10 11 10 10 9 9 10 9 9 8 8 7 7 7 7 7 8 7 7 7 6 7 7 7 7 7 7 6 6 6 6 7 7 7 7 7 7 6 7 7
17 17 16 11 10 8 4 3 2 6 8 9 11 10 9 9 9 9 9 7 6 6 6 6 7 7 7 7 6 6 6 6 7 7 6 6 6 6 6 6 6 7 7 7 7 8 7 7 8
Wind_Direction
245 247 241 261 260 272 51 75 76 71 67 59 54 68 70 63 78 97 116 119 118 120 123 121 118 119 120 119 117 115 112 110 107 104 101 100 99 99 100 101 102 103 103 103 102 101 100 100 101
260 254 246 253 269 45 64 73 77 77 82 83 69 67 75 73 89 109 117 117 120 124 128 122 122 121 122 121 119 117 114 112 110 108 106 104 102 102 102 103 104 105 105 104 104 103 103 104 105
264 263 259 232 241 127 95 84 89 87 84 81 79 67 65 86 101 113 120 123 125 126 122 122 125 124 123 122 121 119 116 115 114 111 109 107 105 105 105 105 105 106 106 106 105 105 106 107 110
261 252 245 251 256 105 99 93 98 98 94 86 84 81 79 86 108 120 128 127 128 125 123 126 127 126 125 124 122 121 120 119 116 113 112 110 109 109 108 107 106 106 106 106 106 107 108 109 112
249 266 259 275 272 108 91 91 93 92 94 91 89 89 88 95 112 128 133 132 131 125 125 129 130 129 128 127 126 125 125 124 120 116 115 113 114 113 111 110 109 108 108 107 108 108 110 111 115
259 252 263 270 231 110 103 104 102 100 108 108 108 103 98 113 126 139 138 137 129 126 127 130 132 132 132 131 131 130 129 126 123 120 119 117 117 115 114 114 112 111 110 110 110 111 112 112 112
262 278 275 265 223 121 110 108 109 114 110 110 107 105 119 130 139 140 137 135 128 127 130 137 137 137 136 135 134 133 130 129 128 126 125 123 120 118 118 117 116 115 114 114 114 116 117 118 119
268 286 290 277 208 123 116 123 123 113 107 115 117 124 145 145 147 141 144 133 130 131 138 143 143 143 145 141 141 138 136 135 134 134 134 130 127 126 126 122 119 119 119 119 120 124 126 130 138
260 268 277 286 255 115 125 131 129 122 112 87 81 125 143 149 149 148 147 136 136 137 142 146 146 153 154 149 145 144 143 143 143 144 145 146 146 141 140 121 127 127 127 129 131 137 141 147 167
239 257 267 301 350 69 128 145 142 144 129 102 96 116 138 151 153 155 155 149 145 143 148 149 151 161 160 149 146 155 157 153 164 153 160 174 154 137 125 130 136 138 139 143 152 155 163 177 177
239 254 278 301 346 343 249 173 177 162 127 131 138 142 151 155 156 160 160 153 147 149 153 149 154 164 156 142 159 165 154 157 170 161 170 176 146 132 128 144 144 149 158 166 160 177 194 187 187
242 259 276 293 313 293 283 248 207 143 141 152 159 157 158 161 163 165 162 154 151 158 157 150 153 158 150 148 160 162 155 163 161 165 178 159 153 147 147 154 161 167 175 175 179 197 163 171 182
242 255 265 275 279 267 268 267 235 170 149 150 154 162 165 166 166 166 163 158 157 162 158 148 151 153 146 138 163 167 157 162 153 160 175 160 159 151 147 153 165 177 160 168 175 143 136 139 132
259 259 261 260 260 250 251 258 241 193 159 148 157 165 171 170 167 167 166 163 163 167 160 152 154 148 141 141 169 150 150 148 149 163 166 172 155 141 140 145 169 171 144 143 143 147 143 139 103
260 263 260 252 245 241 242 245 236 200 174 160 162 168 171 170 169 171 169 167 167 169 159 154 154 150 153 160 183 174 163 157 155 154 152 171 158 147 152 159 179 166 129 120 138 155 152 167 159
251 250 250 244 231 226 229 245 238 205 187 169 165 165 169 170 173 171 167 167 167 167 158 161 166 159 162 168 186 188 176 153 148 149 153 172 163 157 169 166 178 151 147 151 153 180 163 149 150
239 238 243 241 215 214 223 240 227 211 195 176 169 167 170 169 175 169 167 169 168 163 159 164 165 162 167 172 181 195 170 152 151 155 157 170 171 167 185 171 150 153 163 161 178 157 162 161 176
233 230 237 237 203 207 225 234 211 207 203 183 174 171 169 172 177 170 168 168 166 162 162 167 169 164 166 168 178 190 175 170 169 164 162 164 173 174 190 168 150 169 170 160 132 128 140 147 192
258 266 262 245 200 208 229 240 224 210 208 188 178 172 171 171 171 168 168 169 169 166 166 171 176 170 170 176 181 185 184 185 187 181 168 168 178 177 189 177 155 184 174 162 158 151 160 197 200
250 261 266 254 204 216 234 239 238 220 211 202 184 178 175 171 168 168 170 172 174 172 172 175 180 178 180 181 183 187 182 183 189 189 167 174 181 179 185 185 173 181 171 164 159 150 166 207 191
241 248 254 251 231 225 248 245 236 220 208 198 189 180 180 176 171 171 175 177 177 178 180 183 183 182 185 180 180 186 177 188 193 186 174 183 185 186 192 180 187 176 182 173 178 174 190 204 208
238 243 251 253 244 232 231 246 223 206 205 200 192 186 183 181 173 173 177 179 181 182 182 183 182 184 187 184 189 189 190 193 196 185 178 185 191 191 193 185 191 183 190 170 185 185 191 197 215
239 241 243 250 252 255 245 250 229 195 199 203 196 193 185 180 175 173 177 178 182 183 183 183 182 186 187 191 196 195 200 200 194 186 180 184 189 195 199 194 189 191 200 189 191 171 187 195 217
232 236 236 246 251 244 245 249 241 208 191 200 196 189 178 174 173 169 170 172 180 182 183 183 184 188 189 195 201 203 205 203 197 190 183 186 187 195 202 200 191 193 205 200 190 180 190 204 219
219 216 211 216 226 237 233 238 224 169 169 195 200 181 171 171 166 164 168 172 178 182 183 184 184 190 193 198 204 206 208 206 201 198 192 192 192 193 199 202 192 195 200 199 194 193 203 202 211
211 217 221 219 225 231 223 222 188 147 148 162 177 168 166 166 162 164 166 171 178 181 182 183 187 192 196 202 204 207 208 210 207 206 203 200 201 198 193 195 192 196 197 204 198 199 206 201 208
209 220 235 251 267 252 212 192 162 158 158 157 165 160 159 154 156 156 160 167 175 178 182 186 187 191 195 202 202 206 208 210 210 206 208 207 207 204 193 193 195 198 199 204 200 206 210 203 206
225 217 230 245 263 263 217 196 195 171 170 165 161 156 147 147 154 152 150 156 165 173 175 181 183 191 195 200 201 205 206 210 207 208 212 206 204 206 192 198 198 199 200 202 204 204 209 209 209
218 220 228 235 247 254 237 221 199 161 160 161 155 148 148 152 150 145 142 145 150 155 165 172 177 183 190 197 200 207 201 204 204 207 210 206 200 198 196 196 198 198 203 204 204 207 205 211 212
223 224 223 233 238 257 257 217 164 147 154 156 141 138 137 138 136 132 132 137 142 148 158 164 171 179 184 189 191 199 199 198 201 205 204 197 194 196 196 196 197 203 206 204 203 210 212 214 215